• MPC Preparation (Info)

  • MPEC 2010-L79 : 2010 LY63

    The following Minor Planet Electronic Circular may be linked-to from your own Web pages, but must not otherwise be redistributed electronically.

    A form allowing access to any MPEC is at the bottom of this page.


    Read MPEC 2010-L78 Read MPEC 2010-L80


    M.P.E.C. 2010-L79                                Issued 2010 June 14, 17:36 UT
    
         The Minor Planet Electronic Circulars contain information on unusual
             minor planets and routine data on comets.  They are published
       on behalf of Commission 20 of the International Astronomical Union by the
              Minor Planet Center, Smithsonian Astrophysical Observatory,
                              Cambridge, MA 02138, U.S.A.
    
                 Prepared using the Tamkin Foundation Computer Network
    
                                  MPC@CFA.HARVARD.EDU
           URL https://www.minorplanetcenter.org/iau/mpc.html  ISSN 1523-6714
    
                                       2010 LY63
    
    Observations:
         K10L63Y*QC2010 06 12.65034 18 39 18.93 -59 55 40.6          17.3 V EL079E12
         K10L63Y QC2010 06 12.66454 18 39 18.86 -59 55 57.9          17.3 V EL079E12
         K10L63Y QC2010 06 12.67877 18 39 18.80 -59 56 15.3          17.2 V EL079E12
         K10L63Y QC2010 06 12.69300 18 39 18.72 -59 56 32.5          17.2 V EL079E12
         K10L63Y QC2010 06 12.74775 18 39 18.47 -59 57 37.9          17.4 V EL079E12
         K10L63Y QC2010 06 12.74823 18 39 18.50 -59 57 38.5          17.3 V EL079E12
         K10L63Y QC2010 06 12.74873 18 39 18.49 -59 57 39.1          17.5 V EL079E12
         K10L63Y QC2010 06 12.83271 18 39 18.49 -59 59 16.7          17.4 V EL079E12
         K10L63Y QC2010 06 12.83421 18 39 18.48 -59 59 18.4          17.6 V EL079E12
         K10L63Y KC2010 06 13.30065 18 39 22.62 -60 09 01.2          16.3 R EL079I77
         K10L63Y KC2010 06 13.30317 18 39 22.58 -60 09 04.1          16.8 R EL079I77
         K10L63Y  C2010 06 13.30461 18 39 26.31 -60 08 52.3          17.0 C EL079E94
         K10L63Y  C2010 06 13.31606 18 39 26.42 -60 09 07.4          17.0 C EL079E94
         K10L63Y  C2010 06 13.31897 18 39 26.43 -60 09 11.2          17.1 C EL079E94
         K10L63Y  C2010 06 13.32740 18 39 26.55 -60 09 21.6          16.7 C EL079E94
         K10L63Y  C2010 06 13.34461 18 39 26.39 -60 09 42.1          17.1 R EL079474
         K10L63Y  C2010 06 13.34734 18 39 26.41 -60 09 45.8          16.9 R EL079474
         K10L63Y  C2010 06 13.35012 18 39 26.42 -60 09 49.5          17.1 R EL079474
         K10L63Y  C2010 06 13.48401 18 39 27.18 -60 12 39.8          17.7 C EL079E16
         K10L63Y  C2010 06 13.51582 18 39 27.11 -60 13 20.9          16.8 C EL079E16
         K10L63Y  C2010 06 13.52980 18 39 26.24 -60 13 40.4          17.3 R EL079474
         K10L63Y  C2010 06 13.53259 18 39 26.20 -60 13 44.0          17.3 R EL079474
         K10L63Y  C2010 06 13.53536 18 39 26.20 -60 13 47.3          17.2 R EL079474
         K10L63Y  C2010 06 13.53822 18 39 26.98 -60 13 50.1          17.8 C EL079E16
         K10L63Y KC2010 06 14.19126 18 39 28.87 -60 27 18.8          17.5 R EL079I77
         K10L63Y KC2010 06 14.19484 18 39 28.80 -60 27 23.0          17.7 R EL079I77
         K10L63Y KC2010 06 14.19788 18 39 28.74 -60 27 26.5          17.2 R EL079I77
         K10L63Y  C2010 06 14.52831 18 39 31.98 -60 33 59.5          18.3 C EL079D96
         K10L63Y  C2010 06 14.53663 18 39 31.73 -60 34 12.5          17.7 V EL079E23
         K10L63Y  C2010 06 14.53944 18 39 32.18 -60 34 13.3          17.7 C EL079D96
         K10L63Y  C2010 06 14.54329 18 39 31.61 -60 34 20.3          18.3 V EL079E23
         K10L63Y  C2010 06 14.54977 18 39 31.54 -60 34 28.4          17.4 V EL079E23
         K10L63Y  C2010 06 14.55756 18 39 31.55 -60 34 39.0          17.7 V EL079E23
         K10L63Y  C2010 06 14.59691 18 39 31.49 -60 35 27.1          17.8 V EL079D96
         K10L63Y  C2010 06 14.60317 18 39 31.41 -60 35 34.9          17.7 V EL079D96
    
    Observer details:
    474 Mount John Observatory, Lake Tekapo.  Observers A. C. Gilmore,
        P. M. Kilmartin.  Measurer P. M. Kilmartin.  1.0-m f/7.7 reflector + CCD.
    D96 Tzec Maun Observatory, Moorook.  Observers P. Camilleri, G. Sostero,
        E. Guido, L. Donato, V. Gonano.  0.15-m f/7.3 refractor + CCD, 0.15-m
        f/7.4 refractor + CCD.
    E12 Siding Spring Survey.  Observer R. H. McNaught.  0.5-m Uppsala Schmidt
        + CCD.
    E16 Grove Creek Observatory, Trunkey.  Observer P. Camilleri.  0.35-m f/6
        reflector + CCD.
    E23 Arcadia.  Observer A. Hidas.  0.35-m f/11 Schmidt-Cassegrain + CCD.
    E94 Possum Observatory, Gisborne.  Observer J. Drummond.  0.35-m f/10
        Schmidt-Cassegrain + CCD.
    I77 CEAMIG-REA Observatory, Belo Horizonte.  Observers C. Jacques, E. Pimentel.
        Measurer C. Jacques.  0.30-m f/3.0 reflector + CCD.
    
    Orbital elements:
    2010 LY63                                                Earth MOID = 0.0929 AU
    Epoch 2010 July 23.0 TT = JDT 2455400.5                 MPC
    M 344.37806              (2000.0)            P               Q
    n   0.36642136     Peri.  353.98704     +0.91963365     +0.38850886
    a   1.9341146      Node   342.79870     -0.35174032     +0.74917318
    e   0.4310420      Incl.   11.26063     -0.17479327     +0.53647033
    P   2.69           H   17.4           G   0.15           U   8
    Residuals in seconds of arc
    100612 E12  0.1-  0.1+    100613 E94  0.4+  0.5-    100614 I77  0.3+  1.0-
    100612 E12  0.0   0.2+    100613 E94  0.3+  0.5-    100614 I77  0.1+  0.9-
    100612 E12  0.1+  0.1+    100613 E94  0.9+  0.2+    100614 I77  0.1-  0.7-
    100612 E12  0.0   0.1+    100613 474  0.0   0.2-    100614 D96  1.0-  0.3+
    100612 E12  0.2-  0.1-    100613 474  0.0   0.4-    100614 E23  0.0   0.1-
    100612 E12  0.0   0.1-    100613 474  0.0   0.4-    100614 D96  1.0+  0.8+
    100612 E12  0.1-  0.1-    100613 E16  0.2-  1.8+    100614 E23  0.5-  0.5+
    100612 E12  0.2-  0.2-    100613 E16  0.0   2.0+    100614 E23  0.5-  0.6+
    100612 E12  0.3-  0.2-    100613 474  0.0   0.3-    100614 E23  0.1+  0.2-
    100613 I77  1.9+  0.2+    100613 474  0.2-  0.4-    100614 D96  0.3-  0.3-
    100613 I77  1.7+  0.2+    100613 474  0.1-  0.2-    100614 D96  0.4-  0.3-
    100613 E94  0.1+  0.5-    100613 E16  0.2-  1.6+
    
    Ephemeris:
    2010 LY63                a,e,i = 1.93, 0.43, 11                  q = 1.1004
    Date    TT    R. A. (2000) Decl.     Delta      r     Elong.  Phase     V
    2010 06 13    18 39.37   -60 02.7    0.441    1.386   140.9    27.6    17.6
    2010 06 23    18 38.33   -63 16.1    0.382    1.331   139.8    29.5    17.2
    2010 07 03    18 33.22   -65 49.7    0.331    1.279   137.1    32.7    16.9
    2010 07 13    18 26.63   -67 18.1    0.287    1.232   133.6    36.7    16.6
    2010 07 23    18 24.66   -67 16.4    0.246    1.190   130.1    40.8    16.3
    2010 08 02    18 33.76   -65 19.1    0.209    1.154   127.6    44.1    16.0
    2010 08 12    18 56.54   -60 35.4    0.174    1.127   127.2    45.8    15.6
    2010 08 22    19 30.88   -51 26.7    0.143    1.109   129.9    44.4    15.1
    2010 09 01    20 10.27   -35 53.6    0.122    1.101   136.3    39.3    14.6
    2010 09 11    20 48.81   -14 58.6    0.119    1.103   142.4    33.8    14.4
    2010 09 21    21 23.97   +04 20.6    0.137    1.116   142.7    33.0    14.7
    2010 10 01    21 55.15   +17 14.6    0.172    1.139   139.9    34.5    15.3
    2010 10 11    22 23.12   +24 34.4    0.220    1.170   137.6    35.1    15.9
    2010 10 21    22 49.07   +28 26.5    0.275    1.209   135.9    35.0    16.5
    2010 10 31    23 13.67   +30 18.9    0.339    1.254   134.3    34.6    17.0
    2010 11 10    23 37.44   +31 03.8    0.412    1.303   132.2    34.3    17.5
    2010 11 20    00 00.79   +31 14.3    0.493    1.357   129.5    34.2    17.9
    2010 11 30    00 23.80   +31 09.2    0.584    1.413   126.2    34.3    18.4
    2010 12 10    00 46.58   +30 59.6    0.686    1.470   122.3    34.5    18.8
    2010 12 20    01 09.24   +30 52.1    0.797    1.529   118.0    34.6    19.3
    2010 12 30    01 31.75   +30 49.0    0.917    1.588   113.3    34.7    19.6
    2011 01 09    01 54.17   +30 50.7    1.047    1.647   108.4    34.5    20.0
    2011 01 19    02 16.54   +30 56.9    1.185    1.706   103.3    34.1    20.3
    2011 01 29    02 38.83   +31 06.1    1.329    1.763    98.2    33.6    20.7
    2011 02 08    03 01.09   +31 16.7    1.479    1.820    93.0    32.8    20.9
    2011 02 18    03 23.30   +31 27.2    1.634    1.876    87.7    31.8    21.2
    2011 02 28    03 45.44   +31 35.9    1.791    1.930    82.5    30.6    21.4
    2011 03 10    04 07.50   +31 41.5    1.949    1.982    77.2    29.2    21.6
    2011 03 20    04 29.45   +31 42.8    2.108    2.034    72.0    27.7    21.8
    2011 03 30    04 51.23   +31 38.9    2.264    2.083    66.8    26.1    22.0
    
    Sonia Keys                   (C) Copyright 2010 MPC           M.P.E.C. 2010-L79
    

    Read MPEC 2010-L78 Read MPEC 2010-L80


    MPEC number:

    Enter an MPEC number in one of the following forms:

    • 1997-B01 (the full form)
    • J97B01 (the packed version of the full form)
    • B01 (the abbreviated form)